Weather History for Redmond, OR

Change the Weather History Date:

Monday, December 31, 2012

  Actual Average Record
Temperature  
Mean Temperature 14 °F 31 °F  
Max Temperature 28 °F 40 °F 59 °F (1997)
Min Temperature 0 °F 21 °F -20 °F (1978)
Degree Days  
Heating Degree Days 51 34  
Month to date heating degree days 1025 1068  
Since 1 July heating degree days 2558 2840  
Cooling Degree Days 0 0  
Month to date cooling degree days 0 0  
Year to date cooling degree days 206 222  
Moisture  
Dew Point 10 °F    
Average Humidity 75    
Maximum Humidity 92    
Minimum Humidity 58    
Precipitation  
Precipitation 0.00 in 0.03 in 0.48 in (1992)
Month to date precipitation 1.67 1.16  
Year to date precipitation 11.61 8.90  
Sea Level Pressure  
Sea Level Pressure 30.36 in    
Wind  
Wind Speed 3 mph (South)    
Max Wind Speed 9 mph    
Max Gust Speed 12 mph    
Visibility 10 miles    
Events      
T = Trace of Precipitation, MM = Missing Value Source: NWS Daily Summary

Daily Weather History Graph

Daily Weather History Graph

Search for Another Location

Airport:

Trip Planner

Search our weather history database for the weather conditions in past years. The results will help you decide how hot, cold, wet, or windy it might be!

Date:

Astronomy

Dec. 31, 2012 Rise Set
Actual Time 7:40 AM PST 4:35 PM PST
Civil Twilight 7:07 AM PST 5:08 PM PST
Nautical Twilight 6:30 AM PST 5:45 PM PST
Astronomical Twilight 5:55 AM PST 6:20 PM PST
Moon 8:20 PM PST (12/31) 9:16 AM PST (12/31)
Length of Visible Light 10h 01m
Length of Day
8h 55m
Waning Gibbous, 89% of the Moon is Illuminated
Dec 31
Waning Gibbous
Jan 4
Last Quarter
Jan 11
New
Jan 18
First Quarter
Jan 26
Full

Hourly Weather History & Observations

Time (PST) Temp. Windchill Dew Point Humidity Pressure Visibility Wind Dir Wind Speed Gust Speed Precip Events Conditions
12:56 AM 6.1 °F -4.3 °F 3.0 °F 87% 30.35 in 10.0 mi SE 5.8 mph - N/A   Clear
1:56 AM 14.0 °F 6.5 °F 10.9 °F 88% 30.35 in 10.0 mi ESE 4.6 mph - N/A   Clear
2:56 AM 12.0 °F 5.9 °F 9.0 °F 88% 30.36 in 10.0 mi SE 3.5 mph - N/A   Clear
3:56 AM 9.0 °F - 6.1 °F 88% 30.36 in 10.0 mi Calm Calm - N/A   Clear
4:56 AM 9.0 °F 2.4 °F 6.1 °F 88% 30.34 in 10.0 mi South 3.5 mph - N/A   Clear
5:56 AM 5.0 °F -2.1 °F 1.0 °F 84% 30.35 in 10.0 mi SW 3.5 mph - N/A   Clear
6:56 AM 12.0 °F 1.5 °F 7.0 °F 80% 30.35 in 10.0 mi ESE 6.9 mph - N/A   Partly Cloudy
7:56 AM 10.9 °F 4.7 °F 8.1 °F 88% 30.36 in 10.0 mi East 3.5 mph - N/A   Overcast
8:56 AM 18.0 °F 12.7 °F 12.9 °F 81% 30.35 in 10.0 mi NNE 3.5 mph - N/A   Overcast
9:56 AM 19.9 °F - 15.1 °F 81% 30.35 in 10.0 mi Calm Calm - N/A   Mostly Cloudy
10:56 AM 23.0 °F 17.0 °F 15.1 °F 72% 30.33 in 10.0 mi NNE 4.6 mph - N/A   Overcast
11:56 AM 24.1 °F 18.2 °F 15.1 °F 69% 30.32 in 10.0 mi SSE 4.6 mph - N/A   Overcast
12:56 PM 27.0 °F 23.0 °F 16.0 °F 63% 30.30 in 10.0 mi Variable 3.5 mph - N/A   Scattered Clouds
1:56 PM 27.0 °F 23.0 °F 16.0 °F 63% 30.28 in 10.0 mi WSW 3.5 mph - N/A   Clear
2:56 PM 28.0 °F - 15.1 °F 58% 30.29 in 10.0 mi Calm Calm - N/A   Overcast
3:56 PM 27.0 °F 19.5 °F 17.1 °F 66% 30.33 in 10.0 mi NW 6.9 mph - N/A   Overcast
4:56 PM 24.1 °F 16.0 °F 17.1 °F 75% 30.36 in 10.0 mi NNW 6.9 mph - N/A   Overcast
5:56 PM 23.0 °F - 17.1 °F 78% 30.40 in 10.0 mi Calm Calm - N/A   Overcast
6:56 PM 21.9 °F 15.7 °F 16.0 °F 78% 30.40 in 10.0 mi WNW 4.6 mph - N/A   Overcast
7:56 PM 12.9 °F 6.9 °F 10.0 °F 88% 30.43 in 10.0 mi South 3.5 mph - N/A   Clear
8:56 PM 8.1 °F - 5.0 °F 87% 30.43 in 10.0 mi Calm Calm - N/A   Clear
9:56 PM 7.0 °F - 3.9 °F 87% 30.42 in 10.0 mi Calm Calm - N/A   Clear
10:56 PM 10.0 °F - 6.1 °F 84% 30.45 in 10.0 mi Calm Calm - N/A   Scattered Clouds
11:03 PM 6.8 °F - 3.2 °F 85% 30.33 in 10.0 mi Calm Calm - N/A   Mostly Cloudy
11:32 PM 10.4 °F 4.0 °F 6.8 °F 85% 30.35 in 10.0 mi WNW 3.5 mph - N/A   Scattered Clouds
11:56 PM 7.0 °F 0.1 °F 3.0 °F 84% 30.49 in 10.0 mi WSW 3.5 mph - N/A   Clear